Location: Kalisz
(51.7636°N, 18.0893°E)
Time: 12:16:36
(UTC+01:00)

ISS - Visible Passes

Search period start: 24 January 2019 00:00
Search period end: 03 February 2019 00:00
Orbit: 404 x 410 km, 51.6° (Epoch: 24 January)

Date Brightness Start Highest point End Pass type
(mag) Time Alt. Az. Time Alt. Az. Time Alt. Az.
24 Jan -1.7 17:49:35 10° S 17:51:30 15° SE 17:52:04 14° SE visible
24 Jan -0.8 19:24:16 10° SW 19:24:47 14° SW 19:24:47 14° SW visible
25 Jan -2.7 18:33:08 10° SW 18:35:41 34° S 18:35:41 34° S visible
26 Jan -2.4 17:42:10 10° SSW 17:44:58 26° SSE 17:46:30 18° ESE visible
26 Jan -1.4 19:17:55 10° WSW 19:19:14 22° WSW 19:19:14 22° WSW visible
27 Jan -3.7 18:26:35 10° WSW 18:29:51 59° SSE 18:30:00 58° SSE visible
28 Jan -3.1 17:35:21 10° SW 17:38:31 43° SSE 17:40:43 17° E visible
28 Jan -1.9 19:11:37 10° W 19:13:26 30° W 19:13:26 30° W visible
29 Jan -3.9 18:20:12 10° WSW 18:23:30 80° S 18:24:07 55° E visible
29 Jan -0.2 19:56:44 10° W 19:56:50 11° W 19:56:50 11° W visible
30 Jan -3.6 17:28:48 10° WSW 17:32:05 66° SSE 17:34:47 14° E visible
30 Jan -2.4 19:05:17 10° W 19:07:30 39° W 19:07:30 39° W visible
31 Jan -3.9 18:13:50 10° W 18:17:09 90° N 18:18:09 42° E visible
31 Jan -0.5 19:50:23 10° W 19:50:52 13° W 19:50:52 13° W visible
01 Feb -3.8 17:22:23 10° W 17:25:41 85° S 17:28:49 11° E visible
01 Feb -3.0 18:58:55 10° W 19:01:32 51° W 19:01:32 51° W visible
02 Feb -3.9 18:07:27 10° W 18:10:46 86° S 18:12:12 31° E visible
02 Feb -0.8 19:44:02 10° W 19:44:55 16° W 19:44:55 16° W visible
